Regional Weather Roundup
Issued by NWS

Home | Current Version | Previous Version | Text Only | Print | Product List | Glossary On
Versions: 1 2 3 4 5 6 7 8 9 10 11 12 13 14 15 16 17 18 19 20 21 22 23 24 25 26 27 28 29 30 31 32 33 34 35 36 37 38 39 40 41 42 43 44 45 46 47 48 49 50
000
ASUS43 KDTX 010710
RWRMI
MICHIGAN HOURLY REGIONAL WEATHER ROUNDUP
NATIONAL WEATHER SERVICE DETROIT/PONTIAC MI
200 AM EST SUN FEB 01 2015

NOTE: "FAIR" INDICATES FEW OR NO CLOUDS BELOW 12,000 FEET WITH NO
SIGNIFICANT WEATHER AND/OR OBSTRUCTION TO VISIBILITY.

MIZ047>049-052>055-059>063-066>070-074>076-081>083-010800-
SOUTHEAST LOWER MICHIGAN

CITY           SKY/WX    TMP DP  RH WIND       PRES   REMARKS
ADRIAN         LGT SNOW  29  28  96 CALM      30.17S VSB 3/4
ALMA           CLOUDY    25  19  76 N8        30.21S
ANN ARBOR      LGT SNOW  30  26  85 CALM      30.16R FOG
BAD AXE        CLOUDY    20  14  77 N13       30.21S
DETROIT CITY   CLOUDY    33  25  72 NE9       30.17S
DETROIT        CLOUDY    31  25  78 N3        30.17S
FLINT          CLOUDY    28  18  66 NE12      30.19S
GROSSE ILE     CLOUDY    30  27  86 CALM      30.15S
HILLSDALE      LGT SNOW  30  30 100 CALM      30.14S VSB 1
HOWELL         CLOUDY    27  21  80 NE5       30.17R

CITY           SKY/WX    TMP DP  RH WIND       PRES   REMARKS
JACKSON        LGT SNOW  29  27  92 CALM      30.16R VSB 3/4
LAMBERTVILLE   LGT SNOW  32  30  93 CALM      30.18R VSB 1
LANSING        CLOUDY    27  19  72 NE10      30.20R
LAPEER         NOT AVBL
MASON          LGT SNOW  27  23  87 NE8       30.17R
MONROE         LGT SNOW  30  28  93 W7        30.16R
MT. CLEMENS    CLOUDY    29  25  84 N9        30.17R
PONTIAC        CLOUDY    27  23  85 NE9       30.16R
PORT HOPE        N/A     22  13  68 N9G20     30.21R
PORT HURON     CLOUDY    27  23  86 N5        30.19S
TRI CITIES     CLOUDY    25  15  66 N12       30.22R
YPSILANTI      CLOUDY    34  24  67 N3        30.16F
$$
MIZ043>046-050>051-056>058-064>065-071>073-077>080-010800-
SOUTHWEST LOWER MICHIGAN

CITY           SKY/WX    TMP DP  RH WIND       PRES   REMARKS
BATTLE CREEK   LGT SNOW  30  27  88 NE3       30.16S VSB 3/4
BENTON HARBOR  LGT SNOW  29  28  96 E6        30.15F FOG
BIG RAPIDS     CLOUDY    20  13  73 N9        30.21R
COLDWATER      LGT SNOW  29  29  98 NE3       30.15S
HOLLAND        LGT SNOW  29  25  85 NE6       30.18F FOG
GRAND RAPIDS   LGT SNOW  26  22  84 NE9       30.19R FOG
KALAMAZOO      LGT SNOW  30  27  88 CALM      30.16F VSB 3/4
MARSHALL       LGT SNOW  28  27  96 CALM      30.15S VSB 1
MUSKEGON       LGT SNOW  28  21  75 NE9       30.20S
$$
MIZ016>042-010800-
NORTHERN LOWER MICHIGAN

CITY           SKY/WX    TMP DP  RH WIND       PRES   REMARKS
ALPENA         CLOUDY    12   7  80 N16       30.27S WCI  -5
BEAVER ISLAND  CLOUDY    11   4  73 CALM      30.31R
BELLAIRE       MOCLDY    14   6  69 CALM      30.30R
CADILLAC       CLOUDY    14   7  73 N9        30.20S
CHARLEVOIX     CLOUDY    13   5  70 NE10      30.32R WCI   0
FRANKFORT      CLOUDY    18  10  70 E7        30.28S
GAYLORD        CLOUDY    10   4  76 NE8       30.21R
GRAYLING       CLOUDY    10   5  79 CALM      30.24R
HARBOR SPRINGS MOCLDY    10   2  72 NE8       30.29S
HOUGHTON LAKE  CLOUDY    13   5  70 N7        30.22S
MANISTEE       CLOUDY    19   9  63 NE9       30.27S
OSCODA         CLOUDY    16   9  72 N9        30.25R
PELLSTON       MOCLDY     9   1  70 NE10      30.31R WCI  -5
TRAVERSE CITY  CLOUDY    17   8  67 E9        30.27R
$$
MIZ007>008-015-010800-
EASTERN UPPER MICHIGAN

CITY           SKY/WX    TMP DP  RH WIND       PRES   REMARKS
KINROSS        MOCLDY     0  -6  78 NE8       30.32S
MACKINAC ISLAN MOCLDY     6  -1  73 NE12      30.31R WCI  -9
NEWBERRY       PTCLDY     3   0  87 NE7       30.31R
S. S. MARIE    PTCLDY    -2 -11  65 NE7       30.34R
$$
MIZ004>006-011>014-085-010800-
CENTRAL UPPER MICHIGAN

CITY           SKY/WX    TMP DP  RH WIND       PRES   REMARKS
MANISTIQUE     LGT SNOW  12   7  83 N9        30.31R
ESCANABA       CLOUDY    10   3  72 NW5       30.33R
MENOMINEE      CLOUDY    12   1  62 N9        30.32S
SAWYER-GWINN   LGT SNOW  10   4  77 NE14G21   30.28R WCI  -5
$$
MIZ001>003-009>011-084-010800-
WESTERN UPPER MICHIGAN

CITY           SKY/WX    TMP DP  RH WIND       PRES   REMARKS
IRON MOUNTAIN  CLOUDY     7  -1  70 NW6       30.30R
HOUGHTON       MOCLDY     2  -3  80 N7        30.35S
COPPER HARBOR    N/A     10   0  63 E10G18    30.39F WCI  -4
IRONWOOD       CLOUDY     7   1  78 E12       30.30S WCI  -9
$$

ABBREVIATIONS USED IN REMARKS
   TC - TEMPERATURE IN CELSIUS
  WCI - WIND CHILL INDEX
   HX - HEAT INDEX
  VSB - VISIBILITY



USA.gov is the U.S. government's official web portal to all federal, state and local government web resources and services.